{"data":{"norad_id":63176,"intl_designator":"2025-046T","name":"QIANFAN-90","alt_names":[],"object_type":"PAYLOAD","status":"ACTIVE","operator":null,"country":"PRC","launch_date":"2025-03-11","launch_site_code":"WSC","launch_vehicle":null,"mission":null,"orbit_class":"UNKNOWN","rcs_meters":null,"size_class":null,"mass_kg":null,"dimensions":null,"purposes":[],"wikipedia_slug":null,"has_3d_model":false,"image_url":null,"decayed_at":null,"tle_current":{"epoch":"2026-05-25T03:23:36.882240Z","epoch_age_seconds":56670,"freshness":"FRESH","line1":"1 63176U 25046T   26145.14139910  .00000110  00000+0  15128-3 0  9997","line2":"2 63176  88.9692 303.0734 0013847  20.7091 339.4618 13.51010591 69486","mean_motion":13.51010591,"eccentricity":0.0013847,"inclination_deg":88.9692,"raan_deg":303.0734,"arg_perigee_deg":20.7091,"mean_anomaly_deg":339.4618,"bstar":0.00015128,"rev_number":6948,"period_min":106.58687723048,"perigee_km":1058.2312497353,"apogee_km":1078.8540844053,"semimajor_km":7446.6796670703,"source":"CELESTRAK","updated_at":"2026-05-25T13:38:03.542857Z"}}}